Погода в Грехене

Швейцария     46°11′47″N   7°50′26″E
темп.,
°C
ветер,
м/с
пор.,
м/с
влажн.,
%
обл.,
%
осадки,
мм/ч
давл.,
гПа
погр.,
м
28 февраля, вс
вс2801:00−3вюв33862 0.0 103154
04:00−3вюв338823 0.1 103142
07:00−4юв348617 0.1 103284
10:000в338726 0.0 1032392
13:00+1всв239913 0.0 1031284
16:000всв129934 0.0 1029163
19:00−4вюв128448 0.0 103121
22:00−5ююв235214 0.0 103221
1 марта, пн
пн101:00−6ююв22377 0.0 103221
04:00−6ююв23320 0.0 103121
07:00−6ююв23310 0.0 103221
10:000в12660 0.0 103089
13:00+2всв23810 0.0 1030237
16:00+1всв23760 0.0 1028161
19:00−5юв34460 0.0 103127
22:00−6ююв34350 0.0 103324
2 марта, вт
вт201:00−6ююв34320 0.0 103323
04:00−6ююв23300 0.0 103322
07:00−6ююв23290 0.0 103321
10:00+1всв11550 0.0 103252
13:00+3всв12740 0.0 1031193
16:00+3в11840 0.0 1030105
19:00−2ююв23524 0.0 103223
22:00−3ю23340 0.0 103322
3 марта, ср
ср301:00−3ю23320 0.0 103322
04:00−3ю23340 0.0 103223
07:00−3ю23372 0.0 103223
10:00+3зюз01610 0.0 103054
13:00+4сз01610 0.0 1028254
16:00+4сз01754 0.0 1026173
19:00−1ю236516 0.0 102725
22:00−2ююв23568 0.0 102723
4 марта, чт
чт401:00−2ю235611 0.0 102622
04:00−3ю126036 0.0 102422
07:00−3ю126468 0.0 102322
10:00+1ссз0167100 0.0 1021130
13:00+2с117195 0.1 1019456
16:00+1ссв118161 0.3 1017371
19:00−2зюз119479 1.4 101821
22:00−2зсз119787 0.3 101865